Regional Weather Roundup
Issued by NWS

Home | Current Version | Previous Version | Graphics & Text | Print | Product List | Glossary On
Versions: 1 2 3 4 5 6 7 8 9 10 11 12 13 14 15 16 17 18 19 20 21 22 23 24 25 26 27 28 29 30 31 32 33 34 35 36 37 38 39 40 41 42 43 44 45 46 47 48 49 50
000
ASUS43 KBIS 102202
RWRND

NORTH DAKOTA REGIONAL WEATHER ROUNDUP
NATIONAL WEATHER SERVICE BISMARCK ND
400 PM CST SUN DEC 10 2017

NOTE: "FAIR" INDICATES FEW OR NO CLOUDS BELOW 12,000 FEET WITH NO
SIGNIFICANT WEATHER AND/OR OBSTRUCTIONS TO VISIBILITY.


NDZ001>003-009>011-017-102300-
NORTHWEST NORTH DAKOTA

CITY           SKY/WX    TMP DP  RH WIND       PRES   REMARKS
WILLISTON      CLOUDY    45  22  40 W14       30.05R
MINOT          CLOUDY    44  25  47 W16       29.95F
MINOT AFB      CLOUDY    43  25  50 NW15      29.94F
$$

NDZ018>021-031>035-040>046-102300-
SOUTHWEST NORTH DAKOTA

CITY           SKY/WX    TMP DP  RH WIND       PRES   REMARKS
BISMARCK       CLOUDY    47  27  45 W12       30.01F
DICKINSON      PTCLDY    47  21  35 W15       30.02F
GARRISON         N/A     44  22  41 W13       29.98F
HETTINGER ARPT CLOUDY    51  13  21 W23       30.07S
$$

NDZ004>008-012>016-024-026-027-054-102300-
NORTHEAST NORTH DAKOTA

CITY           SKY/WX    TMP DP  RH WIND       PRES   REMARKS
GRAND FORKS    CLOUDY    26  21  81 S5        30.01F
GRND FRKS AFB  CLOUDY    26  20  78 S7        30.01S WCI  19
DEVILS LAKE    CLOUDY    33  28  81 SW3       29.96F
$$

NDZ022-023-025-028>030-036>039-047>053-102300-
SOUTHEAST NORTH DAKOTA

CITY           SKY/WX    TMP DP  RH WIND       PRES   REMARKS
FARGO          CLOUDY    27  21  78 CALM      30.03F
JAMESTOWN      CLOUDY    37  29  72 NW7       29.97F
$$




USA.gov is the U.S. government's official web portal to all federal, state and local government web resources and services.